Overview Statistics Trail Chart Weather Telemetry Raw packets
 

This is the latest recevied weather packets stored in our database for station/object N3FWE. If no packets are shown the sender has not sent any weather packets the latest 10 day(s).

<< 50 51 52 53 54 55 56 >>
Time Temp. Humidity Pressure Rain* Wind** Luminosity Snow
1787821213 21.11° C 84% 1016.5 hPa 0 mm - - -
1787820612 21.11° C 83% 1016.5 hPa 0 mm - - -
1787820012 21.67° C 82% 1016.5 hPa 0 mm - - -
1787819413 21.67° C 81% 1016.7 hPa 0 mm - - -
1787818812 22.22° C 80% 1016.6 hPa 0 mm - - -
1787818213 22.22° C 79% 1016.6 hPa 0 mm - - -
1787817613 22.22° C 79% 1016.7 hPa 0 mm - - -
1787817012 22.22° C 79% 1016.6 hPa 0 mm - - -
1787816412 22.22° C 80% 1016.6 hPa 0 mm - - -
1787815813 21.67° C 81% 1016.8 hPa 0 mm - - -
1787815213 21.67° C 81% 1016.9 hPa 0 mm - - -
1787814612 21.67° C 81% 1017 hPa 0 mm - - -
1787814013 21.67° C 82% 1017.1 hPa 0 mm - - -
1787813412 21.11° C 83% 1017.1 hPa 0 mm - - -
1787812812 20.56° C 86% 1017 hPa 0 mm - - -
1787812212 20° C 87% 1017 hPa 0 mm - - -
1787811612 20° C 87% 1017.1 hPa 0 mm - - -
1787811012 20° C 87% 1017.1 hPa 0 mm - - -
1787810413 20° C 87% 1017.2 hPa 0 mm - - -
1787809812 20° C 87% 1017.2 hPa 0 mm - - -
1787809212 20° C 86% 1017.2 hPa 0 mm - - -
1787808612 20° C 86% 1017.3 hPa 0 mm - - -
1787808012 20° C 86% 1017.3 hPa 0 mm - - -
1787807412 20° C 86% 1017.4 hPa 0 mm - - -
1787806812 20° C 86% 1017.4 hPa 0 mm - - -

* Rain latest hour (hover to see other rain measurements)
** Current wind speed in m/s (hover to see current wind gust speed)